Location: Avington School (historical)
(33.3415°N, 82.2698°W)
Time: 15:30:21
(UTC+00:00)

Daily predictions for brighter satellites

Satellite Brightness Start Highest point End
(mag) Time Altitude Azimuth Time Altitude Azimuth Time Altitude Azimuth
H-2A ROCKET BODY 4.3 22:39:22 10° W 22:45:19 66° S 23:19:20 10° ESE
CZ-4B R/B 3.3 23:08:05 10° SSE 23:13:35 89° ENE 23:19:13 10° NNW
DELTA 2 R/B (1) 3.8 23:08:17 10° WNW 23:13:51 75° SSW 23:19:22 10° ESE
Meteor 2-10 Rocket 4.1 23:10:52 10° N 23:15:52 37° ENE 23:20:40 10° SE
COSMO-SKYMED 1 2.8 23:11:45 10° NNE 23:15:59 51° E 23:20:11 10° S
SL-24 R/B 4.3 23:11:58 10° S 23:16:15 83° W 23:20:45 10° NNW
CSL-04 DEB 4.4 23:12:21 10° NNE 23:16:30 82° ESE 23:20:31 10° SSW
Abrixas rocket 4.4 23:17:09 10° W 23:19:18 23° SW 23:21:28 10° S
Cosmos 1538 Rocket 4.3 23:20:12 10° N 23:25:04 41° ENE 23:29:56 10° SE
Okean-O 3.9 23:23:26 10° ESE 23:26:36 20° ENE 23:29:46 10° NNE
Okean O Rocket 2.0 23:22:36 10° S 23:27:02 73° WSW 23:31:28 10° NNW
Cosmos 1689 Rocket 3.3 23:25:59 10° NE 23:28:14 21° E 23:30:28 10° SSE
Lacrosse 5 3.4 23:25:23 10° N 23:28:47 18° NE 23:31:50 11° ENE
Cosmos 1340 4.2 23:28:05 10° SE 23:30:26 16° E 23:32:34 11° NE
Cosmos 1455 3.2 23:29:31 10° NNE 23:32:42 25° ENE 23:35:54 10° SE
NOSS 2-1 (E) 3.8 23:31:42 10° S 23:34:57 32° ESE 23:37:26 13° NE
ATLAS 3B R/B 3.9 23:29:05 10° NW 23:35:54 51° WSW 23:42:55 10° S
Cosmos 1602 Rocket 4.5 23:33:01 10° SSE 23:36:38 27° E 23:40:17 10° NNE
Cosmos 1300 4.4 23:34:06 10° NNW 23:37:38 37° W 23:41:10 10° SSW
BREEZE-M DEB (TANK) 2.2 23:35:01 10° WNW 23:37:51 83° SW 23:42:41 10° SE
Aureole 3 3.9 23:35:54 10° NNE 23:38:24 21° ENE 23:40:47 10° SE
Cosmos 1703 4.0 23:36:46 10° SSE 23:40:13 31° E 23:43:40 10° NNE
YAOGAN 1 3.5 23:37:22 10° SE 23:40:58 26° ENE 23:44:34 10° NNE
ERS-2 2.0 23:41:15 10° NNE 23:44:52 70° ESE 23:48:28 10° S
CZ-4B R/B 2.5 23:41:42 10° N 23:44:54 45° WNW 23:48:00 10° SSW
Cosmos 2279 Rocket 4.4 23:38:52 10° NNW 23:45:04 68° W 23:51:14 10° S
H-2A R/B 4.5 23:42:26 10° NNW 23:45:52 23° WNW 23:49:14 10° WSW
BREEZE-M DEB (TANK) 4.2 23:44:20 10° WNW 23:47:36 63° SW 23:59:33 10° SE
Meteor 2-1 Rocket 4.3 23:46:22 10° N 23:51:45 51° E 23:57:04 10° SSE
Cosmos 990 Rocket 4.1 23:47:45 10° S 23:52:49 55° ESE 23:57:54 10° NNE
